Location: Pella
(41.4080°N, 92.9160°W)
Time: 17:37:17
(UTC-05:00)

ISS - Visible Passes

Search period start: 24 July 2017 00:00
Search period end: 03 August 2017 00:00
Orbit: 400 x 408 km, 51.6° (Epoch: 25 July)

Date Brightness Start Highest point End Pass type
(mag) Time Alt. Az. Time Alt. Az. Time Alt. Az.
24 Jul -0.8 00:09:13 10° WNW 00:11:27 17° NNW 00:13:42 10° NNE visible
24 Jul -0.6 01:47:01 10° NNW 01:48:54 14° N 01:50:48 10° NE visible
24 Jul -2.1 03:23:06 10° NW 03:26:07 33° NNE 03:29:07 10° E visible
24 Jul -3.1 04:59:37 10° WNW 05:02:34 32° SW 05:05:30 10° SSE visible
24 Jul -4.0 21:38:56 10° SW 21:42:10 72° SE 21:45:24 10° ENE visible
24 Jul -1.2 23:16:18 10° WNW 23:18:55 22° NNW 23:21:31 10° NE visible
25 Jul -0.5 00:54:32 10° NNW 00:56:17 14° N 00:58:02 10° NNE visible
25 Jul -1.4 02:30:57 10° NW 02:33:38 23° NNE 02:36:19 10° ENE visible
25 Jul -4.0 04:07:44 15° WNW 04:10:20 63° SW 04:13:33 10° SE visible
25 Jul -1.8 22:23:28 10° W 22:26:24 31° NNW 22:29:21 10° NE visible
26 Jul -0.6 00:01:48 10° NW 00:03:38 14° N 00:05:29 10° NNE visible
26 Jul -0.6 01:38:45 10° NNW 01:39:29 13° NNW 01:39:29 13° NNW visible
26 Jul -2.8 21:30:47 10° WSW 21:33:56 49° NNW 21:37:08 10° NE visible
26 Jul -0.7 23:08:53 10° NW 23:11:00 16° NNW 23:13:08 10° NNE visible
27 Jul -0.7 00:46:29 10° NNW 00:48:17 15° N 00:48:17 15° N visible
27 Jul -1.0 22:15:54 10° WNW 22:18:24 20° NNW 22:20:54 10° NNE visible
27 Jul -0.7 23:54:02 10° NNW 23:55:48 14° N 23:57:20 11° NNE visible
28 Jul -1.6 21:23:00 10° W 21:25:50 27° NNW 21:28:40 10° NE visible
28 Jul -0.7 23:01:20 10° NW 23:03:07 14° N 23:04:54 10° NNE visible
29 Jul -0.6 00:38:06 10° NNW 00:39:05 15° NNW 00:39:05 15° NNW visible
29 Jul -0.8 22:08:25 10° NW 22:10:26 15° N 22:12:27 10° NNE visible
29 Jul -1.0 23:45:48 10° NNW 23:47:54 16° N 23:48:16 15° NNE visible
30 Jul -1.0 21:15:25 10° WNW 21:17:47 18° NNW 21:20:08 10° NNE visible
30 Jul -0.9 22:53:23 10° NNW 22:55:12 14° N 22:57:01 10° NE visible
31 Jul -0.6 00:29:33 10° NW 00:30:05 13° NNW 00:30:05 13° NNW visible
31 Jul -0.9 22:00:44 10° NW 22:02:30 14° N 22:04:14 10° NNE visible
31 Jul -1.3 23:37:18 10° NNW 23:39:19 20° N 23:39:19 20° N visible
01 Aug -1.0 21:07:50 10° NW 21:09:46 15° N 21:11:41 10° NNE visible
01 Aug -1.3 22:45:01 10° NNW 22:47:12 17° NNE 22:48:34 14° NE visible
02 Aug -0.5 00:21:00 10° NW 00:21:11 11° NW 00:21:11 11° NW visible
02 Aug -1.0 21:52:36 10° NNW 21:54:29 14° N 21:56:23 10° NE visible
02 Aug -1.5 23:28:41 10° NW 23:30:27 24° NNW 23:30:27 24° NNW visible
